Wind_Speed
20 19 19 18 18 18 17 17 16 16 16 15 15 15 15 14 14 13 13 13 13 13 11 10 10 9 9 9 9 8 8 8 7 7 7 7 7 6 6 7 7 7 7
22 21 20 20 20 19 19 19 17 17 17 16 16 16 16 16 15 15 14 14 14 14 13 12 11 11 10 10 11 10 10 10 9 9 9 8 8 8 8 8 8 8 9
23 23 22 21 21 21 20 20 19 18 18 18 17 17 17 17 16 16 16 16 16 15 14 14 13 13 12 12 12 12 12 12 11 11 11 10 10 10 10 10 10 10 10
24 23 23 23 23 22 21 21 20 20 20 20 19 19 18 18 18 18 18 17 17 17 16 16 16 15 15 15 14 13 13 14 14 13 13 13 12 12 12 12 12 12 12
25 25 25 25 24 24 23 23 22 22 21 21 20 21 20 20 20 20 19 19 19 18 18 18 17 17 17 16 16 15 15 15 15 15 15 15 15 15 14 14 14 14 14
27 27 26 26 26 25 25 24 24 24 23 23 22 22 22 21 21 21 21 21 21 20 20 20 19 19 18 18 18 17 17 17 17 17 17 17 17 17 16 16 16 16 16
28 28 28 28 27 27 27 26 26 26 25 25 24 24 24 23 23 23 23 23 22 22 22 21 21 21 20 20 20 20 20 20 19 19 20 19 19 19 19 19 19 19 19
29 29 30 30 29 29 29 29 28 28 28 27 27 27 26 25 25 25 25 25 24 24 24 23 23 22 22 22 22 22 22 22 22 22 22 22 22 22 22 22 22 21 21
32 32 32 31 31 31 30 30 30 30 29 30 29 29 28 28 27 27 26 26 25 25 25 25 25 24 24 24 24 24 24 24 24 24 24 24 24 24 24 24 24 24 23
33 33 32 32 32 32 32 32 31 31 31 31 31 31 30 30 29 29 28 28 27 27 27 27 26 26 26 26 26 26 26 26 26 26 26 25 26 26 26 26 26 26 26
34 34 34 35 35 34 34 34 33 33 33 33 33 32 32 32 31 31 30 29 29 29 29 29 29 29 29 29 29 29 29 28 28 28 28 28 29 29 29 28 29 28 28
35 35 35 35 36 36 36 35 35 34 35 34 33 33 33 33 32 32 32 31 31 31 31 31 31 31 31 31 31 31 31 31 31 31 31 31 31 31 31 31 31 31 31
34 34 35 35 35 36 37 37 36 36 36 35 35 34 34 34 34 34 33 33 33 33 33 33 33 33 34 34 33 33 33 33 33 33 33 33 34 34 34 34 34 34 34
35 35 35 35 35 35 36 37 37 37 37 37 37 37 36 36 36 36 35 35 35 35 35 35 35 35 36 36 36 35 35 35 35 35 36 36 36 36 36 36 37 36 37
35 35 35 36 36 37 37 37 37 37 36 36 37 37 37 38 38 38 38 38 38 38 38 37 38 38 37 37 37 37 37 37 37 37 38 38 38 38 38 38 39 39 38
36 37 38 37 37 38 38 39 39 39 38 38 38 38 38 38 39 40 40 40 40 40 40 40 40 40 40 40 39 39 40 40 40 40 40 40 40 40 41 41 40 40 40
38 38 39 38 38 38 39 39 39 39 40 39 39 39 39 39 39 40 40 40 41 42 42 42 42 42 42 41 42 42 42 42 42 42 42 42 42 43 42 42 41 41 41
38 38 39 40 39 39 39 39 40 40 40 40 40 40 40 40 41 41 41 42 42 43 43 44 44 44 44 43 43 43 43 43 44 44 44 44 44 44 44 43 43 43 43
38 39 38 39 40 40 40 40 40 40 41 42 42 42 42 42 43 42 42 43 44 44 44 44 43 44 45 45 45 45 45 44 45 45 46 46 46 45 45 45 45 45 45
38 39 39 40 41 42 43 42 41 41 41 42 43 44 44 44 44 44 44 45 45 45 45 45 45 45 45 46 46 46 46 46 46 46 46 47 48 47 47 48 47 47 47
40 40 41 41 42 43 43 43 43 43 43 44 44 45 45 46 46 46 46 46 46 46 46 46 46 46 47 47 47 48 48 48 47 47 47 48 48 48 49 49 49 49 48
39 41 42 42 43 43 43 44 44 44 44 44 45 45 46 47 47 48 48 47 47 47 48 48 48 47 48 48 48 48 48 48 49 49 49 50 50 50 50 51 51 51 50
40 40 41 42 43 43 44 44 44 44 44 44 45 46 46 47 47 48 48 48 48 49 49 49 49 49 49 49 49 49 49 49 48 49 50 50 51 51 51 51 51 51 51
40 39 40 42 42 43 43 44 45 44 45 46 47 48 48 47 48 48 49 49 49 49 49 49 50 50 50 50 50 50 51 51 50 49 50 51 52 52 51 51 51 50 50
39 39 40 41 41 42 43 44 45 45 46 46 47 47 47 48 48 49 49 49 49 49 49 50 50 50 50 50 50 50 50 50 50 50 49 50 50 52 52 51 51 50 50
39 39 40 41 42 43 43 43 44 44 45 46 46 47 47 48 49 49 49 49 50 49 49 49 49 50 50 50 50 50 50 50 50 50 50 49 49 50 50 50 50 50 49
Wind_Direction
247 247 247 248 247 248 249 250 249 247 244 242 243 243 241 239 238 239 240 240 240 239 239 242 245 242 239 242 247 251 251 250 252 249 248 249 249 249 251 253 255 254 250
247 248 249 249 249 249 250 250 250 247 244 243 244 245 244 242 240 240 243 243 243 243 246 247 247 248 246 247 249 250 251 253 255 253 251 252 253 255 256 258 258 256 255
248 249 249 249 250 250 251 251 250 248 245 244 244 244 245 246 245 244 244 244 244 247 249 247 247 247 248 250 252 252 251 253 255 254 253 254 255 257 258 260 260 257 255
249 249 249 249 250 250 250 250 249 248 247 245 247 245 246 248 248 247 247 247 247 247 250 250 247 248 249 251 252 251 251 253 255 256 255 255 256 257 259 261 261 259 257
249 250 249 249 250 250 250 249 249 249 249 248 249 247 245 247 249 249 249 250 250 250 250 251 251 250 250 251 251 252 253 255 256 256 256 256 256 257 259 261 261 260 260
250 250 250 249 249 249 249 250 249 250 250 251 251 249 247 248 250 251 251 252 252 252 252 252 252 253 252 253 254 255 255 257 257 257 258 258 258 258 259 261 262 262 263
250 251 250 249 250 250 251 250 250 250 251 252 252 252 250 250 251 252 253 254 254 254 254 254 254 254 255 255 256 257 257 257 258 258 259 260 260 260 261 262 263 262 264
250 250 251 251 250 251 251 251 251 251 251 252 252 253 252 251 252 253 254 255 255 255 255 255 255 255 257 257 258 259 259 259 259 260 261 261 261 262 262 263 263 263 264
252 251 250 250 251 251 252 252 252 251 252 253 253 254 253 251 252 253 254 255 256 256 255 256 256 256 257 259 259 260 260 261 261 261 262 263 262 262 263 263 263 264 265
252 251 251 251 251 251 252 252 252 252 252 253 254 255 254 253 253 254 254 255 255 256 257 257 257 258 259 260 260 261 262 262 263 263 263 263 263 264 264 263 264 264 265
252 252 251 252 252 252 252 252 253 254 253 254 255 256 256 255 254 254 255 256 256 257 257 258 258 259 259 261 262 262 263 263 263 264 264 264 264 264 264 264 265 265 265
252 252 252 253 252 252 252 253 254 255 255 256 256 257 257 257 257 256 256 256 256 257 257 258 258 259 260 261 262 263 263 264 264 264 265 264 265 265 265 265 266 266 266
252 252 253 253 252 252 253 254 254 255 256 256 257 257 258 258 259 258 257 257 257 257 258 258 259 260 260 262 263 263 263 264 265 265 265 265 266 265 266 266 266 267 267
252 252 253 253 253 253 253 254 254 255 255 256 257 258 258 259 259 258 257 257 257 257 258 258 260 260 261 262 263 263 264 265 265 266 266 266 266 266 266 266 266 267 267
252 252 254 253 252 253 254 254 255 256 257 257 257 258 258 258 259 259 258 258 258 258 258 259 260 261 261 262 263 264 265 266 266 267 267 267 267 267 266 266 266 267 267
254 253 254 254 253 253 253 254 256 255 256 258 258 259 260 260 260 260 261 260 259 259 260 260 261 262 262 262 263 264 265 266 266 267 267 268 268 268 268 268 268 267 267
255 255 254 254 254 254 254 254 255 256 256 258 258 258 259 260 261 262 262 263 262 261 261 261 262 262 263 263 263 263 265 266 266 267 267 267 268 268 269 268 268 267 267
254 255 254 254 254 254 255 254 255 255 256 257 258 259 259 260 261 263 263 263 263 263 262 263 263 263 263 264 264 264 265 265 266 266 267 267 267 267 268 268 268 267 267
254 255 256 254 253 254 255 255 255 256 257 257 258 259 260 261 262 263 264 264 264 264 264 264 264 264 264 264 264 264 265 266 266 266 266 266 267 267 268 269 268 268 267
255 254 255 256 255 255 256 257 257 258 259 259 259 260 261 261 263 264 265 265 264 264 264 264 264 265 265 265 265 265 265 266 266 267 267 267 268 267 267 268 268 268 268
255 256 256 256 256 256 256 257 258 259 260 260 260 261 262 262 263 264 265 266 265 266 266 266 266 266 266 266 266 266 266 267 267 267 267 267 268 268 268 268 268 268 269
258 258 256 256 257 257 257 258 259 259 260 260 261 262 263 264 265 265 266 266 266 266 267 267 267 266 266 267 267 268 268 267 267 268 267 268 268 268 268 269 269 269 269
259 259 258 256 256 257 257 257 259 260 261 261 261 262 263 265 265 266 266 266 266 267 267 267 267 267 267 267 267 269 269 268 268 268 268 269 269 269 268 269 269 269 269
262 261 260 258 258 258 258 259 261 262 263 263 263 264 264 265 265 266 267 266 267 268 268 267 267 267 267 267 268 268 269 269 269 268 269 269 269 268 269 269 269 269 269
264 262 261 260 260 261 261 260 261 262 263 265 265 265 265 266 266 267 267 267 267 268 268 268 268 268 269 268 268 269 270 270 270 270 270 270 269 269 269 269 269 269 269
265 264 263 261 261 262 262 262 263 263 264 265 265 266 266 267 268 267 267 267 267 268 268 268 268 268 268 268 269 269 270 271 271 271 271 270 270 269 269 269 269 269 269
Height
5832 5833 5834 5835 5837 5838 5839 5839 5840 5841 5842 5843 5843 5844 5845 5846 5846 5847 5848 5849 5850 5850 5851 5852 5853 5853 5854 5854 5855 5856 5856 5857 5857 5858 5858 5858 5859 5859 5860 5860 5861 5861 5861
5828 5830 5831 5832 5833 5835 5836 5837 5838 5839 5839 5840 5841 5842 5843 5843 5844 5845 5846 5847 5848 5848 5849 5850 5851 5851 5852 5853 5854 5854 5855 5855 5856 5856 5857 5857 5858 5858 5858 5859 5859 5860 5860
5824 5826 5827 5829 5830 5831 5832 5833 5835 5836 5837 5837 5838 5839 5840 5841 5842 5843 5844 5844 5845 5846 5847 5848 5849 5850 5850 5851 5852 5852 5853 5853 5854 5854 5855 5856 5856 5856 5857 5857 5858 5858 5858
5820 5822 5823 5825 5826 5827 5829 5830 5831 5832 5833 5834 5835 5836 5837 5838 5839 5840 5841 5842 5842 5843 5844 5845 5846 5847 5848 5849 5849 5850 5850 5851 5851 5852 5853 5853 5854 5854 5855 5855 5856 5856 5856
5816 5818 5819 5821 5822 5823 5825 5826 5827 5829 5830 5831 5832 5833 5834 5835 5836 5837 5838 5839 5839 5840 5841 5842 5843 5844 5845 5845 5846 5847 5848 5848 5849 5849 5850 5851 5851 5852 5852 5853 5853 5853 5854
5811 5813 5814 5816 5817 5819 5820 5822 5823 5824 5826 5827 5828 5829 5830 5831 5832 5833 5834 5835 5836 5837 5838 5839 5840 5841 5841 5842 5843 5844 5844 5845 5846 5846 5847 5848 5848 5849 5849 5850 5850 5851 5851
5806 5808 5809 5811 5812 5814 5815 5817 5818 5820 5821 5822 5823 5825 5826 5827 5828 5829 5830 5831 5832 5833 5834 5835 5836 5837 5838 5838 5839 5840 5841 5841 5842 5843 5844 5844 5845 5846 5846 5847 5847 5847 5848
5801 5803 5804 5805 5807 5808 5810 5811 5813 5815 5816 5817 5818 5820 5821 5822 5823 5825 5826 5827 5828 5829 5830 5831 5832 5833 5833 5834 5835 5836 5837 5837 5838 5839 5840 5840 5841 5841 5842 5843 5843 5843 5844
5795 5797 5798 5799 5801 5803 5804 5806 5807 5809 5810 5812 5813 5814 5816 5817 5818 5819 5821 5822 5823 5824 5825 5826 5827 5828 5829 5830 5830 5831 5832 5833 5834 5834 5835 5836 5836 5837 5837 5838 5839 5839 5839
5788 5791 5792 5793 5795 5797 5798 5800 5801 5803 5804 5806 5807 5809 5810 5811 5813 5814 5815 5817 5818 5819 5820 5821 5822 5823 5824 5825 5826 5826 5827 5828 5829 5829 5830 5831 5831 5831 5832 5833 5833 5834 5834
5781 5783 5785 5787 5789 5791 5792 5793 5795 5797 5798 5800 5801 5802 5804 5805 5806 5808 5809 5811 5812 5813 5814 5816 5817 5818 5819 5819 5820 5821 5822 5823 5823 5824 5824 5825 5825 5826 5826 5827 5827 5828 5828
5774 5776 5778 5779 5781 5783 5785 5787 5788 5790 5792 5793 5794 5796 5797 5798 5800 5801 5803 5804 5805 5807 5808 5809 5810 5811 5812 5813 5814 5815 5816 5817 5817 5818 5818 5819 5819 5819 5820 5820 5821 5821 5822
5766 5768 5770 5772 5773 5776 5777 5779 5781 5783 5784 5786 5787 5789 5790 5792 5793 5794 5796 5797 5798 5800 5801 5802 5803 5804 5805 5806 5807 5808 5809 5810 5810 5811 5811 5811 5812 5812 5813 5813 5814 5814 5814
5759 5761 5763 5763 5765 5767 5769 5771 5773 5775 5777 5778 5780 5782 5783 5784 5786 5787 5788 5789 5791 5792 5793 5795 5796 5797 5798 5799 5800 5800 5801 5802 5803 5803 5804 5804 5804 5804 5805 5805 5806 5806 5806
5751 5753 5755 5756 5758 5760 5761 5763 5765 5767 5769 5770 5772 5773 5775 5776 5778 5779 5780 5781 5783 5784 5785 5787 5788 5789 5790 5791 5792 5793 5793 5794 5795 5795 5795 5796 5796 5796 5796 5796 5797 5797 5798
5743 5745 5746 5748 5750 5752 5753 5755 5757 5759 5760 5762 5763 5765 5767 5768 5769 5771 5772 5773 5774 5775 5777 5778 5779 5780 5781 5782 5783 5784 5785 5785 5786 5786 5787 5787 5787 5787 5787 5787 5788 5788 5788
5735 5736 5738 5739 5741 5743 5745 5746 5748 5749 5751 5753 5754 5756 5758 5759 5760 5762 5763 5764 5765 5766 5767 5768 5769 5771 5772 5773 5774 5774 5775 5776 5776 5777 5777 5777 5778 5777 5777 5778 5778 5778 5779
5726 5728 5729 5731 5732 5734 5736 5737 5739 5740 5742 5744 5745 5747 5748 5750 5751 5752 5754 5755 5756 5756 5757 5758 5760 5761 5761 5762 5763 5764 5765 5765 5766 5766 5767 5767 5767 5767 5767 5767 5768 5768 5769
5717 5719 5720 5721 5723 5725 5727 5728 5729 5731 5733 5734 5736 5737 5739 5740 5741 5742 5743 5745 5746 5746 5747 5748 5749 5750 5751 5752 5753 5754 5754 5755 5755 5755 5755 5755 5756 5756 5756 5757 5757 5757 5758
5707 5709 5711 5712 5714 5715 5717 5719 5720 5721 5723 5724 5726 5727 5729 5730 5731 5732 5733 5734 5735 5736 5736 5737 5738 5739 5740 5741 5742 5742 5743 5743 5743 5744 5744 5744 5744 5744 5745 5745 5745 5746 5746
5698 5700 5701 5703 5704 5706 5707 5709 5711 5712 5713 5714 5715 5717 5718 5719 5720 5721 5722 5723 5724 5724 5725 5726 5726 5727 5728 5729 5730 5731 5731 5731 5732 5732 5732 5732 5732 5732 5732 5733 5733 5733 5734
5688 5689 5691 5693 5694 5695 5697 5698 5700 5702 5703 5704 5705 5706 5707 5708 5709 5710 5711 5711 5712 5712 5713 5714 5715 5715 5716 5717 5717 5718 5719 5721 5720 5720 5720 5720 5720 5720 5720 5720 5720 5720 5721
5678 5679 5680 5682 5683 5685 5686 5688 5689 5690 5691 5693 5694 5695 5696 5697 5697 5698 5699 5699 5700 5700 5701 5702 5703 5704 5704 5705 5704 5705 5706 5707 5708 5708 5707 5707 5707 5707 5706 5706 5706 5707 5707
5667 5668 5670 5671 5672 5673 5675 5677 5678 5680 5681 5681 5683 5683 5684 5685 5685 5686 5687 5687 5688 5688 5689 5690 5690 5691 5692 5692 5692 5692 5693 5693 5694 5696 5696 5694 5693 5693 5693 5693 5693 5693 5694
5657 5658 5659 5660 5661 5662 5664 5665 5667 5668 5669 5670 5671 5672 5672 5673 5673 5674 5674 5675 5675 5676 5676 5677 5677 5678 5678 5679 5679 5679 5679 5679 5679 5680 5682 5681 5680 5680 5680 5680 5679 5680 5680
5647 5648 5649 5649 5650 5651 5653 5654 5655 5657 5658 5658 5659 5660 5660 5661 5661 5661 5661 5662 5662 5663 5663 5664 5664 5665 5665 5665 5666 5666 5666 5666 5666 5666 5667 5667 5667 5667 5666 5666 5666 5666 5667